Ostrava, Czech Republic

6:10 PM CEST on August 20, 2017 (GMT +0200)
Mosnov

Weather History for LKMT - March, 2013

Change the Weather History Date:

Wednesday, March 20, 2013

  Actual Average Record
Temperature  
Mean Temperature 41 °F -  
Max Temperature 51 °F 53 °F - ()
Min Temperature 30 °F 35 °F - ()
Degree Days  
Heating Degree Days 24    
Moisture  
Dew Point 31 °F    
Average Humidity 71    
Maximum Humidity 93    
Minimum Humidity 46    
Precipitation  
Precipitation 0.00 in 0.06 in - ()
Sea Level Pressure  
Sea Level Pressure 29.70 in    
Wind  
Wind Speed 7 mph ()    
Max Wind Speed 13 mph    
Max Gust Speed -    
Visibility 7.6 miles    
Events      
T = Trace of Precipitation, MM = Missing Value Source: Averaged Metar Reports

Daily Weather History Graph

Daily Weather History Graph

Search for Another Location

Airport or City:

Trip Planner

Search our weather history database for the weather conditions in past years. The results will help you decide how hot, cold, wet, or windy it might be!

Date:

Astronomy

Mar. 20, 2013 Rise Set
Actual Time 5:50 AM CET 6:00 PM CET
Civil Twilight 5:18 AM CET 6:32 PM CET
Nautical Twilight 4:40 AM CET 7:10 PM CET
Astronomical Twilight 4:01 AM CET 7:49 PM CET
Moon 10:48 AM CET 1:47 AM CET
Length of Visible Light 13h 14m
Length of Day
12h 10m
First Quarter, 57% of the Moon is Illuminated
Mar 20
First Quarter
Mar 27
Full
Apr 3
Last Quarter
Apr 10
New
Apr 18
First Quarter

Hourly Weather History & Observations

Time (CET) Temp. Windchill Dew Point Humidity Pressure Visibility Wind Dir Wind Speed Gust Speed Precip Events Conditions
12:00 AM 37.4 °F 31.4 °F 30.2 °F 75% 29.59 in 6.2 mi SSW 8.1 mph - N/A   Partly Cloudy
12:30 AM 37.4 °F 29.3 °F 30.2 °F 75% 29.59 in 6.2 mi SSW 12.7 mph - N/A   Partly Cloudy
1:00 AM 33 °F - 29 °F 78% 29.66 in 16 mi SW 6.7 mph - -   Scattered Clouds
1:00 AM 33.8 °F 27.0 °F 28.4 °F 81% 29.59 in - SW 8.1 mph - N/A   Clear
1:30 AM 33.8 °F 28.6 °F 30.2 °F 87% 29.62 in 6.2 mi WSW 5.8 mph - N/A   Scattered Clouds
2:00 AM 32.0 °F 24.8 °F 28.4 °F 87% 29.62 in 6.2 mi SW 8.1 mph - N/A   Partly Cloudy
2:30 AM 35.6 °F 30.7 °F 30.2 °F 81% 29.62 in 6.2 mi SSW 5.8 mph - N/A   Scattered Clouds
3:00 AM 33.8 °F - 30.2 °F 87% 29.62 in 6.2 mi Variable 2.3 mph - N/A   Mostly Cloudy
3:30 AM 33.8 °F 30.8 °F 30.2 °F 87% 29.62 in 6.2 mi SW 3.5 mph - N/A   Mostly Cloudy
4:00 AM 33.8 °F 27.0 °F 30.2 °F 87% 29.62 in 6.2 mi SW 8.1 mph - N/A   Mostly Cloudy
4:30 AM 35.6 °F 27.5 °F 30.2 °F 81% 29.65 in 6.2 mi SW 11.5 mph - N/A   Mostly Cloudy
5:00 AM 35.6 °F 27.1 °F 30.2 °F 81% 29.65 in 6.2 mi SW 12.7 mph - N/A   Scattered Clouds
5:30 AM 35.6 °F 27.5 °F 30.2 °F 81% 29.65 in 6.2 mi SW 11.5 mph - N/A   Scattered Clouds
6:00 AM 33.8 °F 27.0 °F 30.2 °F 87% 29.65 in 6.2 mi WSW 8.1 mph - N/A   Partly Cloudy
6:30 AM 33.8 °F - 30.2 °F 87% 29.65 in 6.2 mi Variable 2.3 mph - N/A   Partly Cloudy
7:00 AM 35 °F - 32 °F 83% 29.73 in 19 mi 2.2 mph - -   Scattered Clouds
7:00 AM 33.8 °F - 30.2 °F 87% 29.68 in - Calm Calm - N/A   Clear
7:30 AM 37.4 °F - 32.0 °F 81% 29.68 in - SSW 2.3 mph - N/A   Clear
8:00 AM 37.4 °F 32.8 °F 32.0 °F 81% 29.68 in - SW 5.8 mph - N/A   Clear
8:30 AM 39.2 °F 35.0 °F 32.0 °F 75% 29.71 in - WSW 5.8 mph - N/A   Clear
9:00 AM 41.0 °F 36.4 °F 33.8 °F 76% 29.71 in - SW 6.9 mph - N/A   Clear
9:30 AM 41.0 °F 36.4 °F 32.0 °F 70% 29.71 in 6.2 mi SW 6.9 mph - N/A   Partly Cloudy
10:00 AM 42.8 °F 38.0 °F 33.8 °F 70% 29.71 in 6.2 mi SSW 8.1 mph - N/A   Partly Cloudy
10:30 AM 42.8 °F 37.5 °F 32.0 °F 66% 29.71 in 6.2 mi SW 9.2 mph - N/A   Scattered Clouds
11:00 AM 44.6 °F 38.4 °F 33.8 °F 66% 29.71 in 6.2 mi SW 12.7 mph - N/A   Scattered Clouds
11:30 AM 46.4 °F 41.5 °F 33.8 °F 62% 29.71 in 6.2 mi West 10.4 mph - N/A   Mostly Cloudy
12:00 PM 46.4 °F 41.1 °F 35.6 °F 66% 29.71 in 6.2 mi WSW 11.5 mph - N/A   Scattered Clouds
12:30 PM 48.2 °F - 33.8 °F 58% 29.71 in 6.2 mi WSW 11.5 mph - N/A   Scattered Clouds
1:00 PM 48 °F - 34 °F 46% 29.73 in 19 mi WSW 11.2 mph - -   Scattered Clouds
1:00 PM 48.2 °F - 33.8 °F 58% 29.71 in 6.2 mi WSW 10.4 mph - N/A   Partly Cloudy
1:30 PM 48.2 °F - 33.8 °F 58% 29.71 in 6.2 mi WSW 11.5 mph - N/A   Partly Cloudy
2:00 PM 50.0 °F - 33.8 °F 54% 29.71 in 6.2 mi WSW 10.4 mph - N/A   Partly Cloudy
2:30 PM 50.0 °F - 33.8 °F 54% 29.71 in 6.2 mi West 9.2 mph - N/A   Partly Cloudy
3:00 PM 51.8 °F - 33.8 °F 50% 29.71 in 6.2 mi WSW 9.2 mph - N/A   Partly Cloudy
3:30 PM 50.0 °F - 32.0 °F 50% 29.71 in 6.2 mi WSW 8.1 mph - N/A   Partly Cloudy
4:00 PM 51.8 °F - 32.0 °F 47% 29.71 in 6.2 mi WSW 9.2 mph - N/A   Partly Cloudy
4:30 PM 50.0 °F - 32.0 °F 50% 29.71 in - West 9.2 mph - N/A   Clear
5:00 PM 50.0 °F - 30.2 °F 47% 29.71 in - West 8.1 mph - N/A   Clear
5:30 PM 48.2 °F - 30.2 °F 50% 29.71 in - NW 5.8 mph - N/A   Clear
6:00 PM 46.4 °F 45.2 °F 32.0 °F 57% 29.71 in - North 3.5 mph - N/A   Clear
6:30 PM 44.6 °F 43.1 °F 30.2 °F 57% 29.74 in - NNE 3.5 mph - N/A   Clear
7:00 PM 43 °F - 30 °F 49% 29.77 in 16 mi ENE 4.5 mph - -   Clear
7:00 PM 44.6 °F 43.1 °F 30.2 °F 57% 29.74 in - NE 3.5 mph - N/A   Clear
7:30 PM 42.8 °F - 30.2 °F 61% 29.74 in - East 2.3 mph - N/A   Clear
8:00 PM 37.4 °F 34.9 °F 30.2 °F 75% 29.74 in - NNE 3.5 mph - N/A   Clear
8:30 PM 37.4 °F 34.9 °F 30.2 °F 75% 29.77 in - NNE 3.5 mph - N/A   Clear
9:00 PM 35.6 °F - 30.2 °F 81% 29.77 in - Variable 1.2 mph - N/A   Clear
9:30 PM 35.6 °F - 30.2 °F 81% 29.77 in - Variable 1.2 mph - N/A   Clear
10:00 PM 33.8 °F - 30.2 °F 87% 29.77 in - Variable 1.2 mph - N/A   Clear
10:30 PM 33.8 °F - 30.2 °F 87% 29.77 in - Calm Calm - N/A   Clear
11:00 PM 32.0 °F - 28.4 °F 87% 29.77 in - Variable 1.2 mph - N/A   Clear
11:30 PM 30.2 °F - 28.4 °F 93% 29.77 in 4.3 mi Variable 1.2 mph - N/A   Unknown